Weather observations for the past three days for
Fort Sill
Metric (Imperial)
Date Time (cdt) Wind (kph) Vis. (km) Weather Sky Cond. Temperature (ºC) Relative Humidity Wind Chill (°C) Heat Index (°C) Pressure Precipitation (cm)
Air Dwpt 6 hour altimeter (cm) sea level (mb) 1 hr 3 hr 6 hr
Max. Min.
01 19:55 SE 15 16.09 A Few Clouds FEW110 34.9 15.2 31% 35 75.87 1010.3
01 18:55 S 17 16.09 Fair CLR 36.8 12.9 39.6 35.7 24% 36 75.87 1010.2
01 17:55 S 19 16.09 Fair CLR 38.3 12.8 22% 37 75.9 1010.5
01 16:55 S 20 G 28 16.09 Mostly Cloudy BKN100 38.9 11.8 20% 38 75.9 1010.5
01 15:55 SW 15 16.09 Partly Cloudy SCT100 39.4 11.5 19% 38 75.95 1011.2
01 14:55 SE 11 16.09 Fair CLR 38 12.5 22% 37 76.02 1012.2
01 13:55 SE 11 16.09 Partly Cloudy SCT090 35.8 12.7 25% 35 76.07 1012.9
01 12:55 SW 11 16.09 A Few Clouds FEW080 FEW100 36.7 13.4 37.6 23.5 25% 36 76.15 1013.9
01 11:55 SW 13 G 28 16.09 Fair CLR 36 14.6 28% 36 76.17 1014.2
01 10:55 SW 11 16.09 Fair CLR 34 16.3 35% 34 76.2 1014.6
01 09:55 SW 13 16.09 Fair CLR 31.3 16.4 41% 31 76.23 1015.0
01 08:55 S 6 16.09 Fair CLR 27.9 15.8 48% 28 76.23 1015.0
01 07:55 Calm 16.09 Fair CLR 23.9 16.4 63% 25 76.2 1014.7
01 06:55 Calm 16.09 Fair CLR 24.5 15.1 27.6 23.7 56% 26 76.17 1014.3
01 05:55 Calm 16.09 Fair CLR 24 15.5 59% 25 76.15 1013.9
01 04:55 Calm 16.09 Fair CLR 24.5 14.8 55% 26 76.1 1013.2
01 03:55 SE 7 16.09 Fair CLR 25 15 54% 26 76.1 1013.2
01 02:55 Calm 16.09 Fair CLR 26.9 14.6 47% 27 76.1 1013.2
01 01:55 Calm 16.09 Fair CLR 26.9 14.6 47% 27 76.1 1013.2
01 00:55 S 9 16.09 Fair CLR 27.5 14.5 36.9 27.4 45% 28 76.07 1012.9
31 23:55 SE 9 16.09 Fair CLR 28.3 14.1 42% 28 76.05 1012.5
31 22:55 SE 11 16.09 Fair CLR 29.9 13.6 37% 29 76.05 1012.5
31 21:55 SE 15 16.09 Fair CLR 31.5 12.8 32% 30 76 1011.8
31 20:55 SE 11 16.09 Fair CLR 31.9 11.1 28% 30 75.92 1010.9
31 19:55 SE 11 16.09 Fair CLR 34.4 10.2 23% 33 75.9 1010.6
31 17:55 SE 22 16.09 Fair CLR 38 11.8 21% 37 75.9 1010.5
31 16:55 S 20 G 37 16.09 A Few Clouds FEW095 39 11.9 20% 38 75.92 1010.8
31 15:55 S 13 G 28 16.09 Fair CLR 38.8 13.2 22% 38 75.95 1011.1
31 13:55 SW 15 G 28 16.09 Fair CLR 37.8 14.9 26% 38 76.07 1012.9
31 12:55 SW 15 16.09 Mostly Cloudy BKN075 BKN085 36.3 15.4 37.4 23.8 29% 36 76.12 1013.5
31 11:55 S 19 G 26 16.09 Fair CLR 36.1 18.2 35% 38 76.15 1013.8
31 10:55 SW 15 16.09 Fair CLR 34.1 18.9 41% 36 76.17 1014.2
31 09:55 S 13 16.09 Fair CLR 31.3 18.3 46% 32 76.17 1014.3
31 08:55 S 11 16.09 Fair CLR 28.4 16.9 50% 29 76.17 1014.3
31 07:55 Calm 16.09 Fair CLR 24.4 15.6 58% 26 76.1 1013.3
31 06:55 S 7 16.09 Fair CLR 24 14.9 28 23.8 57% 25 76.05 1012.6
31 05:55 S 7 16.09 Fair CLR 24.4 14.5 54% 26 76.02 1012.2
31 04:55 S 6 16.09 Fair CLR 24.8 14 51% 26 76 1011.8
31 03:55 SE 7 16.09 Fair CLR 26 13.5 46% 26 75.97 1011.5
31 02:55 SE 7 16.09 Fair CLR 25.9 13.7 47% 26 75.97 1011.5
31 01:55 SE 9 16.09 Fair CLR 26.8 13.5 44% 27 75.97 1011.5
31 00:55 SE 11 16.09 Fair CLR 28 13.1 38.3 28 40% 28 75.95 1011.1
30 23:55 S 13 16.09 Fair CLR 29.3 13.1 37% 29 75.92 1010.8
30 22:55 SE 13 16.09 Fair CLR 29.9 13.6 37% 29 75.9 1010.4
30 21:55 S 15 16.09 Fair CLR 31.9 12.6 31% 31 75.87 1010.1
30 20:55 S 17 16.09 Fair CLR 33.7 13.2 29% 33 75.79 1009.2
30 19:55 S 20 16.09 Fair CLR 35.9 13.4 26% 35 75.77 1008.9
30 18:55 S 19 16.09 Fair CLR 38.4 11.4 40.1 37.5 20% 37 75.77 1008.8
30 17:55 S 22 G 33 16.09 Fair CLR 39.4 11.5 19% 38 75.77 1008.8
30 16:55 S 24 G 31 16.09 Fair CLR 39.8 12.6 20% 39 75.79 1009.1
30 15:55 S 24 16.09 Fair CLR 39.8 14 22% 40 75.82 1009.4
30 14:55 S 15 16.09 Fair CLR 39.1 14.1 23% 39 75.9 1010.4
30 13:55 S 19 16.09 Partly Cloudy SCT090 38.8 14.5 24% 39 75.95 1011.1
30 12:55 S 24 16.09 Fair CLR 38 16.3 38.7 23.3 28% 39 76 1011.8
30 11:55 S 26 G 35 16.09 Fair CLR 36.8 16.9 31% 38 76.05 1012.5
30 10:55 S 24 16.09 Fair CLR 35 17.7 36% 36 76.1 1013.2
30 09:55 SW 11 16.09 Fair CLR 31.9 17.7 43% 33 76.1 1013.2
30 08:55 S 20 16.09 Fair CLR 28.6 16.8 49% 29 76.1 1013.3
30 07:55 S 11 16.09 Fair CLR 24.7 16.4 60% 26 76.07 1012.9
30 06:55 S 11 16.09 Fair CLR 23.6 15.9 28.3 23.2 62% 76.05 1012.6
30 05:55 S 9 16.09 Fair CLR 23.5 15.3 60% 76 1011.8
30 04:55 SE 7 16.09 Fair CLR 24.9 14.6 53% 26 75.97 1011.5
30 03:55 SE 7 16.09 Fair CLR 25.4 14.8 52% 26 75.97 1011.5
30 02:55 S 9 16.09 Fair CLR 26.7 14.4 47% 27 75.97 1011.5
30 01:55 SE 9 16.09 Fair CLR 27.3 14.6 46% 27 75.97 1011.5
30 00:55 S 11 16.09 Fair CLR 28.4 14.2 38.4 28.4 42% 28 75.97 1011.5
29 23:55 SE 13 16.09 Fair CLR 29.7 14.2 39% 29 75.97 1011.5
29 22:55 S 15 16.09 Fair CLR 30.9 14.1 36% 30 75.97 1011.5
29 21:55 SE 15 16.09 Fair CLR 32.4 13.6 32% 32 75.92 1010.9
Date Time (cdt) Wind (kph) Vis. (km) Weather Sky Cond. Air Dwpt Max. Min. Relative Humidity Wind Chill (°C) Heat Index (°C) altimeter (cm) sea level (mb) 1 hr 3 hr 6 hr
6 hour
Temperature (ºC) Pressure Precipitation (cm)